Wetbulb
66.36 64.56 64.39 61.49 53.02 51.84 50.80 50.68 54.03 54.38 56.64 59.80 64.00 68.76 68.00 69.98 68.10 62.51 77.02 78.47 78.54 79.42 79.20 77.13 77.91 77.83 77.93 78.39 78.16 77.60 77.02 76.50 76.19 76.37 76.60 76.62 76.62 76.69 77.05 77.68 77.22 77.18 76.50 75.54 74.50 73.71 72.97 72.60 72.86
64.72 61.29 61.79 58.53 49.68 48.88 50.22 53.12 52.02 55.60 57.68 61.73 65.39 68.19 68.50 66.78 73.27 74.81 76.17 78.34 78.44 79.05 78.54 77.15 77.52 77.91 77.81 77.91 78.16 77.70 77.07 76.50 76.34 76.62 76.70 76.47 76.67 77.02 77.07 77.28 76.86 76.87 76.28 75.19 74.34 73.33 72.61 72.52 72.64
62.78 62.01 57.99 53.33 50.97 48.61 50.34 52.76 54.01 56.17 60.43 61.76 65.39 68.59 68.80 67.29 74.08 75.27 78.13 78.14 78.49 78.65 78.00 78.21 77.27 77.80 77.55 77.43 77.55 77.68 77.20 76.95 76.85 77.00 76.90 76.67 76.90 77.07 77.45 77.05 76.89 76.38 75.69 75.14 74.31 73.22 72.53 72.30 72.80
60.50 58.73 57.29 51.50 49.79 51.70 52.65 54.50 55.05 56.09 58.29 61.45 65.20 64.91 66.99 72.67 74.54 77.13 78.36 78.04 77.64 77.80 78.44 76.42 77.20 77.35 77.33 77.25 77.30 77.65 77.58 77.45 77.40 77.10 76.90 76.87 77.02 77.07 77.29 76.97 76.97 76.57 75.55 75.09 74.31 73.16 72.50 72.39 72.28
60.01 57.87 51.43 50.13 50.68 52.67 54.01 54.42 55.81 55.95 57.60 58.82 61.57 61.67 62.96 71.74 76.48 77.32 77.28 77.82 76.99 77.51 78.67 76.05 76.60 76.75 76.77 76.69 77.02 77.27 77.55 77.40 77.32 77.23 77.10 76.97 77.12 77.20 77.09 77.05 76.97 76.55 76.19 75.12 74.35 73.32 72.72 72.20 71.71
54.87 55.65 49.53 48.79 50.34 52.22 53.68 54.88 55.51 56.47 57.84 58.78 59.21 59.59 59.52 66.05 70.47 74.88 75.45 75.76 76.71 77.26 77.83 76.38 75.88 76.04 76.29 76.54 76.45 77.02 76.94 76.99 77.07 77.25 77.12 77.02 77.12 76.94 76.95 76.97 76.85 76.77 76.68 75.88 75.02 74.08 73.12 72.46 72.00
53.89 52.79 49.56 50.63 50.63 51.01 52.63 55.42 54.42 55.91 57.52 56.49 59.98 57.12 59.36 63.08 67.75 73.30 74.19 74.76 75.20 76.42 77.50 77.97 75.76 75.76 75.61 75.84 76.22 76.22 76.39 76.41 76.49 76.69 76.66 76.74 76.79 76.62 76.52 76.47 76.65 76.70 76.60 76.11 75.57 74.44 73.25 72.58 72.26
54.78 53.60 50.30 51.08 49.92 50.54 53.90 54.31 55.25 55.29 55.23 58.96 59.83 56.53 57.30 60.26 65.97 68.80 70.35 72.42 73.79 74.44 75.70 77.41 78.56 77.42 76.06 74.68 75.82 75.72 75.99 76.06 76.08 76.11 76.26 76.36 76.22 76.19 75.77 76.06 75.94 76.40 76.24 75.94 75.59 74.83 73.39 72.72 72.24
55.33 49.99 48.78 49.93 49.89 51.74 54.62 53.45 55.66 56.86 56.16 56.87 57.85 58.72 59.34 60.46 61.50 64.02 64.97 66.00 68.34 69.53 71.54 72.70 75.70 76.85 78.19 77.84 77.37 75.69 75.44 75.54 75.64 75.61 75.69 75.79 74.36 74.03 73.99 74.04 75.03 76.04 76.04 75.67 75.64 75.09 74.01 73.05 72.50
51.75 50.20 50.44 53.24 53.11 53.14 54.00 53.85 54.79 54.27 54.82 55.04 56.86 58.45 59.51 60.39 60.81 60.43 60.05 60.54 61.78 63.92 65.78 68.85 71.98 73.70 75.21 75.62 76.63 78.51 77.68 75.39 73.94 73.43 73.70 74.25 72.82 73.38 72.43 73.75 74.46 75.92 75.87 75.67 75.47 75.16 74.62 72.93 69.42
53.05 50.81 52.56 51.93 53.33 54.46 53.50 53.13 54.78 53.76 52.96 56.35 55.84 57.84 58.95 59.75 60.35 60.48 60.56 61.39 61.79 62.40 62.26 63.41 68.16 72.85 73.79 73.59 76.43 77.75 77.22 77.21 76.93 76.31 76.07 75.98 74.29 73.08 72.57 72.61 74.23 74.79 75.46 74.30 74.48 73.91 72.47 70.86 69.97
51.39 52.74 52.33 52.84 53.28 52.89 52.47 54.42 53.31 54.17 57.07 58.60 58.64 59.80 60.53 60.39 61.67 62.34 62.69 63.38 64.13 65.32 66.45 66.77 67.19 68.41 71.63 73.57 74.14 76.29 76.72 77.80 77.59 76.18 77.56 76.64 75.02 75.15 73.87 73.21 73.51 75.18 74.25 74.07 73.09 72.86 73.31 71.70 71.23
53.17 53.01 53.42 54.47 54.24 54.43 54.96 53.31 53.36 55.89 58.38 59.73 60.32 60.74 61.13 62.38 62.81 63.96 64.88 65.57 65.82 65.74 66.80 67.42 68.58 69.02 69.13 70.09 72.20 72.82 74.99 76.03 77.44 77.02 76.72 77.58 76.44 76.22 75.17 74.83 74.37 73.93 73.17 73.02 72.74 72.38 72.56 71.96 71.78
55.07 54.13 53.95 54.74 55.19 55.14 53.69 53.46 55.04 56.84 58.84 58.99 59.77 60.12 61.05 61.46 62.52 63.41 63.82 64.18 64.98 65.85 66.37 67.46 67.71 68.62 68.68 69.71 71.56 73.94 73.71 74.07 73.38 74.12 75.37 77.97 77.28 77.99 76.16 75.79 74.91 74.42 73.87 73.57 72.81 73.03 72.55 72.39 71.66
54.34 51.82 53.37 53.82 54.56 54.28 55.42 51.89 52.97 57.48 58.37 57.65 58.42 59.48 60.47 61.25 62.16 62.34 63.19 63.66 64.81 65.45 66.60 67.02 67.27 67.79 69.22 69.32 69.47 70.56 71.90 72.76 72.13 71.84 75.90 75.38 78.15 78.69 78.18 75.97 76.08 75.62 75.92 74.81 74.63 73.84 73.75 72.30 72.56
52.96 52.59 49.93 53.81 53.72 54.55 53.76 50.04 55.89 57.82 57.39 56.71 57.42 58.50 59.18 60.56 61.69 62.68 63.40 63.77 64.77 65.41 65.73 66.89 66.89 67.27 68.26 68.96 69.03 68.79 68.24 69.46 72.07 72.43 73.12 74.12 75.92 77.19 76.42 75.81 75.50 75.95 76.16 74.86 73.43 72.61 72.29 71.86 71.81
51.82 49.28 49.23 51.02 53.84 53.50 52.64 50.72 56.46 57.03 56.58 56.39 57.54 58.39 58.64 59.71 61.32 62.77 63.11 63.52 64.33 65.02 65.69 65.93 66.95 66.66 67.46 68.42 68.08 68.50 71.33 68.95 68.41 71.60 72.99 74.83 73.89 74.73 76.57 75.18 75.70 77.29 75.08 74.82 73.50 72.22 72.79 71.31 71.97
49.20 48.56 49.23 48.56 52.47 52.53 51.34 51.07 55.29 56.32 55.59 55.68 57.10 58.00 58.60 59.25 60.00 62.04 62.70 63.19 63.65 64.56 65.60 66.19 66.46 67.08 67.40 67.42 67.77 67.43 67.26 67.89 68.53 67.92 69.78 74.13 73.49 73.85 76.12 74.46 76.18 76.08 73.91 73.74 73.75 73.85 72.28 71.61 71.17
50.31 48.78 48.25 50.34 52.31 50.51 50.50 51.07 52.85 56.20 56.36 55.51 56.69 57.51 57.89 58.73 60.94 61.92 62.01 62.69 62.94 63.88 64.38 65.08 65.33 66.71 66.25 65.59 64.86 65.40 65.37 66.71 67.17 69.12 72.31 72.37 73.25 74.24 76.78 73.64 74.70 75.32 73.40 74.13 76.46 74.19 73.47 70.81 72.30
49.72 48.78 49.00 50.66 51.66 51.10 50.56 50.38 52.75 54.34 55.58 56.31 56.54 56.99 57.60 58.65 59.95 60.74 61.56 61.86 62.31 62.79 63.27 63.81 64.83 65.78 65.80 65.28 65.63 65.65 65.59 65.97 66.35 67.15 69.98 70.69 71.22 74.79 74.58 75.50 74.38 75.32 72.39 75.11 75.81 75.15 71.66 71.31 71.81
50.13 48.64 48.87 48.13 50.67 51.70 50.72 49.65 51.79 53.71 55.73 56.29 57.21 57.82 58.18 58.07 58.12 59.01 59.70 60.95 61.66 61.70 62.29 62.45 64.09 65.14 65.61 65.97 65.81 65.85 66.80 66.86 65.44 66.38 66.60 68.34 69.59 70.73 74.65 73.61 73.97 74.87 74.86 72.22 74.46 74.42 73.44 70.04 72.00
47.61 51.42 49.19 48.52 47.99 44.82 50.98 42.70 49.89 53.39 53.96 55.11 55.79 55.93 57.08 57.97 58.37 58.57 58.75 59.44 60.59 60.93 62.03 62.68 63.33 64.54 65.15 65.85 64.95 64.05 62.18 62.16 64.27 65.49 66.19 67.70 69.33 68.47 69.95 73.21 73.31 74.34 74.01 73.31 73.87 73.48 73.62 72.87 69.85
48.22 50.84 49.28 49.42 47.88 47.50 47.01 44.96 48.13 53.07 51.54 52.76 54.40 56.08 56.84 57.48 57.47 57.38 58.07 58.76 59.74 60.68 61.11 62.59 64.30 64.12 64.98 65.03 64.23 61.54 60.90 61.97 63.36 64.46 66.64 68.05 69.26 69.63 67.80 70.12 73.04 73.98 73.58 74.00 73.96 74.43 73.89 72.58 70.67
50.47 50.08 50.92 50.68 48.84 42.70 47.20 45.82 46.19 47.03 50.45 54.12 55.37 55.63 56.23 56.78 57.24 57.67 58.58 59.23 59.32 60.04 60.54 60.88 62.81 64.16 65.29 64.14 63.91 63.14 61.77 61.21 60.38 62.25 61.81 62.90 64.60 66.95 69.81 69.17 69.83 71.79 72.99 73.14 73.66 74.00 74.26 72.93 72.40
51.43 49.89 44.08 41.50 42.27 41.82 48.35 45.42 48.37 51.85 53.35 53.63 53.36 54.81 56.13 57.09 56.73 56.59 57.31 57.54 58.64 59.15 59.63 59.50 60.22 61.06 63.39 62.92 63.29 63.08 62.02 61.59 60.10 60.29 60.81 63.01 62.79 64.13 67.02 70.81 71.11 70.27 71.89 72.87 73.12 72.84 73.12 73.54 72.49
48.54 48.41 44.61 33.30 38.25 41.79 47.51 42.86 47.62 53.04 54.63 55.31 55.55 55.47 56.52 56.49 56.61 56.78 57.51 57.93 58.30 59.09 59.64 59.12 58.99 59.75 60.79 61.51 61.28 62.24 61.23 60.00 59.63 59.87 59.66 60.31 60.87 63.34 66.93 67.47 69.26 69.91 71.82 72.01 72.24 71.86 72.52 73.23 72.18
50.40 49.47 50.01 44.67 46.44 42.14 44.73 47.47 51.67 53.02 53.23 53.92 54.36 54.83 54.95 55.63 56.50 56.73 57.58 58.18 58.55 59.18 59.39 59.36 59.00 58.90 59.24 59.59 59.32 59.35 59.59 59.21 58.05 57.87 58.60 58.38 59.84 61.65 64.73 65.73 67.33 68.02 68.89 70.95 71.34 71.00 71.69 72.25 72.48
50.49 51.68 45.55 47.01 36.08 35.61 41.53 43.33 45.32 47.63 50.12 52.42 52.93 53.37 54.68 55.67 55.99 56.42 56.91 58.01 58.98 59.69 60.12 59.82 59.19 58.23 58.61 58.37 57.64 56.56 56.40 55.46 56.73 56.30 55.82 57.38 59.41 60.99 61.80 62.85 64.48 66.01 68.25 69.07 70.17 70.17 71.76 71.64 71.27
49.19 48.35 48.38 46.96 45.95 39.13 36.75 42.70 50.51 50.18 52.24 52.49 53.58 53.88 54.48 54.97 55.53 55.92 56.69 57.92 58.81 59.51 59.25 58.99 58.38 57.82 57.05 55.80 54.85 54.15 53.51 53.17 53.57 54.13 54.93 56.00 57.39 58.24 59.58 61.24 61.99 63.65 65.15 67.87 68.69 69.45 70.05 70.13 71.14
49.48 48.36 47.33 44.24 41.34 45.22 43.12 42.43 53.93 53.33 53.35 54.30 52.98 54.14 54.88 55.50 55.24 56.00 56.56 57.33 57.92 58.40 58.38 57.80 57.68 56.28 53.96 53.51 52.69 52.18 51.54 51.24 51.81 53.50 54.38 55.97 55.99 56.93 57.66 59.11 61.06 61.85 63.72 66.33 67.47 67.66 67.90 69.02 69.44
MSLP
1009.28 1008.15 1006.85 1005.42 1004.01 1001.16 998.55 997.92 998.73 998.56 998.64 999.39 999.44 998.94 998.32 998.10 998.46 1002.03 1002.32 1003.52 1002.80 1003.85 1005.71 1007.10 1007.90 1008.27 1008.54 1008.73 1008.90 1009.33 1009.68 1010.00 1010.34 1010.61 1010.94 1011.08 1011.24 1011.58 1011.62 1011.74 1011.97 1012.12 1012.34 1012.45 1012.60 1012.74 1012.83 1012.94 1012.99
1007.94 1006.87 1006.10 1003.91 1001.94 998.95 997.31 998.26 998.79 999.12 999.81 1000.06 999.86 999.61 998.96 1000.34 1000.62 1002.26 1003.30 1003.82 1003.35 1004.52 1005.96 1006.82 1008.19 1008.46 1008.74 1008.92 1009.14 1009.43 1009.80 1010.18 1010.46 1010.75 1011.05 1011.36 1011.54 1011.70 1011.89 1012.00 1012.05 1012.20 1012.42 1012.61 1012.71 1012.83 1012.98 1013.06 1013.08
1008.62 1006.75 1004.90 1002.20 1000.47 998.34 997.66 998.82 999.39 999.95 1000.14 1000.12 999.68 1000.72 1000.62 1002.00 1002.09 1002.42 1003.77 1003.74 1004.02 1004.90 1005.85 1007.36 1008.42 1008.75 1008.95 1009.13 1009.34 1009.60 1009.79 1010.15 1010.56 1010.86 1011.00 1011.27 1011.56 1011.84 1012.04 1012.17 1012.31 1012.33 1012.39 1012.49 1012.71 1012.88 1012.95 1013.02 1013.06
1006.75 1005.65 1004.39 1001.84 999.34 998.82 999.15 999.83 1000.31 999.82 1000.13 1000.35 999.97 1000.91 1002.57 1003.24 1003.06 1003.26 1003.65 1003.95 1004.35 1004.86 1005.77 1008.00 1008.51 1008.86 1009.12 1009.25 1009.51 1009.64 1009.93 1010.10 1010.39 1010.70 1011.05 1011.28 1011.53 1011.74 1011.93 1012.10 1012.32 1012.45 1012.50 1012.50 1012.59 1012.84 1013.00 1013.06 1013.11
1006.33 1003.98 1002.14 1000.55 999.11 999.68 1000.53 1000.86 1000.84 999.96 1000.12 1000.19 1000.63 1001.16 1002.68 1003.45 1003.48 1003.48 1003.94 1004.02 1004.27 1004.78 1005.86 1007.59 1008.61 1009.01 1009.22 1009.32 1009.51 1009.74 1009.99 1010.20 1010.43 1010.61 1010.94 1011.25 1011.48 1011.74 1011.98 1012.12 1012.22 1012.39 1012.52 1012.62 1012.67 1012.75 1012.93 1013.04 1013.11
1004.65 1003.09 1001.20 999.54 999.14 1000.53 1001.11 1001.38 1001.00 1000.50 1000.57 1000.87 1000.91 1001.66 1002.88 1003.50 1003.54 1003.29 1003.67 1003.89 1004.35 1005.09 1006.08 1007.66 1008.74 1009.12 1009.36 1009.56 1009.74 1010.01 1010.16 1010.35 1010.54 1010.74 1010.94 1011.22 1011.53 1011.78 1011.96 1012.09 1012.20 1012.32 1012.40 1012.42 1012.55 1012.67 1012.75 1012.94 1013.00
1004.13 1002.08 1000.60 999.27 998.95 1000.66 1001.13 1001.96 1001.30 1001.00 1000.83 1001.64 1001.90 1001.98 1003.01 1003.49 1003.92 1003.65 1003.90 1004.36 1004.66 1005.34 1005.70 1007.23 1008.02 1008.84 1009.37 1009.55 1009.74 1009.96 1010.24 1010.43 1010.72 1010.93 1011.12 1011.31 1011.51 1011.70 1011.89 1012.08 1012.22 1012.27 1012.32 1012.35 1012.38 1012.49 1012.61 1012.58 1012.75
1004.12 1002.52 1000.66 1000.09 999.58 1000.52 1002.01 1002.22 1002.38 1002.05 1002.01 1003.09 1002.74 1002.20 1003.06 1004.29 1004.07 1003.68 1003.38 1003.48 1003.87 1004.70 1004.94 1005.96 1006.90 1007.68 1008.43 1008.92 1009.81 1010.02 1010.15 1010.28 1010.52 1010.80 1011.04 1011.22 1011.37 1011.48 1011.62 1011.79 1011.99 1012.18 1012.28 1012.27 1012.31 1012.35 1012.33 1012.37 1012.46
1004.66 1002.88 1000.46 999.98 1000.38 1000.72 1002.24 1002.33 1002.88 1003.38 1002.85 1003.15 1003.39 1003.72 1004.77 1004.94 1004.70 1003.62 1003.69 1003.49 1003.71 1004.42 1004.58 1005.15 1005.15 1005.58 1006.41 1006.67 1008.17 1009.46 1010.07 1010.36 1010.49 1010.60 1010.77 1011.01 1010.74 1010.56 1010.91 1011.10 1011.23 1011.62 1011.88 1012.00 1012.16 1012.29 1012.28 1012.20 1012.15
1003.97 1002.16 1000.50 1001.02 1001.46 1001.74 1002.49 1002.99 1003.04 1003.36 1003.00 1003.27 1003.77 1004.69 1005.42 1005.28 1005.23 1004.64 1004.30 1003.97 1003.92 1004.18 1004.59 1004.83 1005.42 1006.01 1005.94 1006.23 1007.78 1008.40 1008.63 1009.29 1009.56 1009.64 1009.73 1010.19 1009.90 1009.72 1009.50 1009.78 1010.59 1011.10 1011.40 1011.64 1011.81 1011.92 1012.05 1012.20 1011.35
1003.46 1002.50 1002.29 1003.10 1003.48 1003.29 1003.21 1003.58 1003.68 1003.66 1003.43 1003.84 1004.68 1004.94 1005.63 1005.79 1005.62 1005.35 1005.06 1005.23 1005.48 1005.68 1005.90 1006.21 1006.69 1007.18 1007.29 1006.54 1005.88 1006.74 1007.84 1007.84 1008.18 1008.77 1009.14 1009.24 1009.10 1009.16 1009.12 1009.20 1009.59 1010.40 1011.00 1010.79 1011.11 1011.35 1011.39 1010.84 1010.41
1003.75 1003.89 1003.68 1003.66 1004.36 1004.29 1004.07 1003.90 1004.16 1004.77 1005.17 1005.82 1006.12 1006.40 1006.58 1006.37 1006.64 1006.84 1006.89 1007.00 1007.22 1007.46 1007.86 1007.97 1007.81 1008.10 1008.02 1007.50 1006.82 1006.24 1007.32 1007.34 1007.34 1007.68 1008.21 1008.80 1008.81 1008.78 1008.62 1008.61 1008.67 1008.61 1008.80 1009.46 1009.64 1009.33 1009.54 1009.82 1009.67
1004.14 1004.08 1004.38 1004.60 1004.76 1004.68 1004.64 1004.80 1004.66 1005.52 1006.59 1006.63 1006.94 1007.14 1007.41 1007.77 1007.84 1008.24 1008.50 1008.65 1008.87 1008.76 1008.92 1008.94 1009.15 1008.86 1008.97 1008.66 1007.67 1007.23 1006.92 1006.96 1007.17 1006.70 1007.38 1007.75 1008.21 1008.28 1008.24 1008.21 1008.14 1007.83 1007.56 1007.80 1008.16 1008.33 1008.32 1008.44 1008.72
1004.32 1004.35 1004.46 1004.52 1004.35 1004.90 1004.89 1004.92 1005.61 1006.46 1006.90 1007.12 1007.48 1007.70 1008.12 1008.45 1008.97 1009.01 1009.24 1009.42 1009.64 1009.62 1009.71 1009.76 1009.52 1009.24 1009.16 1009.05 1008.70 1007.92 1007.49 1006.92 1006.73 1006.52 1006.39 1006.76 1007.40 1007.74 1007.83 1007.77 1007.94 1007.79 1007.45 1007.24 1007.28 1007.42 1007.74 1008.06 1008.17
1004.91 1004.61 1004.50 1004.54 1004.50 1004.58 1004.86 1005.20 1005.54 1006.64 1006.97 1007.24 1007.80 1008.21 1008.74 1009.17 1009.49 1009.87 1009.98 1010.08 1010.26 1010.00 1010.16 1010.21 1009.68 1009.39 1009.45 1009.30 1008.84 1008.34 1007.63 1006.76 1006.53 1006.30 1006.21 1006.58 1006.79 1007.25 1007.79 1007.52 1007.38 1007.32 1007.31 1007.28 1007.27 1007.30 1007.41 1007.72 1007.80
1004.51 1004.26 1003.22 1003.81 1004.65 1004.91 1005.58 1003.98 1005.76 1006.87 1006.90 1007.24 1007.95 1008.40 1008.82 1009.32 1009.83 1010.28 1010.38 1010.38 1010.49 1010.48 1010.44 1010.39 1010.08 1009.87 1009.51 1009.54 1009.18 1008.60 1007.89 1007.30 1006.42 1006.13 1005.94 1005.99 1006.34 1006.84 1007.75 1007.76 1007.20 1006.78 1007.00 1007.28 1007.29 1007.22 1007.22 1007.13 1007.31
1003.61 1002.54 1002.87 1003.74 1004.79 1004.88 1005.23 1004.30 1005.69 1006.85 1007.11 1007.29 1007.78 1008.21 1008.83 1009.25 1009.74 1010.43 1010.56 1010.52 1010.56 1010.56 1010.58 1010.48 1010.40 1009.98 1009.97 1009.61 1009.16 1008.57 1007.89 1007.39 1006.79 1006.07 1006.02 1005.71 1005.73 1005.89 1006.70 1007.23 1007.37 1006.92 1006.88 1006.87 1007.08 1007.11 1007.19 1006.98 1006.82
1002.72 1002.98 1003.37 1003.84 1004.37 1005.08 1004.74 1004.50 1005.02 1006.32 1006.92 1007.28 1007.80 1008.37 1008.88 1009.50 1009.84 1010.25 1010.48 1010.58 1010.56 1010.57 1010.63 1010.55 1010.40 1010.24 1010.17 1009.57 1008.82 1007.93 1007.27 1006.77 1006.23 1005.85 1005.59 1005.63 1005.59 1005.38 1005.69 1005.87 1006.18 1006.57 1006.41 1006.27 1006.54 1006.61 1006.61 1006.76 1006.71
1004.80 1004.49 1004.09 1004.18 1004.85 1005.65 1004.94 1004.59 1004.92 1005.53 1006.95 1007.14 1007.74 1008.51 1009.04 1009.50 1009.84 1010.06 1010.28 1010.41 1010.40 1010.48 1010.49 1010.49 1010.38 1010.28 1010.11 1009.43 1008.83 1007.99 1007.29 1006.67 1006.03 1005.35 1005.10 1005.20 1005.44 1005.65 1005.37 1005.38 1005.46 1005.90 1006.26 1005.64 1005.60 1006.13 1006.41 1006.41 1006.11
1005.43 1004.93 1004.31 1004.66 1005.09 1005.74 1005.12 1004.57 1004.60 1004.92 1006.44 1007.17 1008.07 1008.52 1009.05 1009.43 1009.60 1009.71 1009.80 1009.99 1010.20 1010.26 1010.25 1010.24 1010.19 1010.18 1010.06 1009.59 1009.21 1008.93 1008.32 1007.66 1007.08 1006.48 1005.87 1005.60 1005.44 1005.02 1005.51 1005.48 1004.99 1005.18 1005.40 1005.22 1005.32 1005.78 1005.72 1005.72 1006.07
1005.35 1005.24 1005.00 1005.30 1005.27 1005.18 1004.72 1004.20 1003.69 1005.40 1006.66 1007.69 1008.45 1008.98 1009.10 1009.26 1009.35 1009.22 1009.16 1009.41 1009.70 1009.83 1009.87 1009.85 1009.92 1009.97 1009.87 1009.74 1009.06 1008.46 1007.84 1007.05 1006.37 1005.76 1005.44 1005.20 1005.16 1005.02 1004.77 1005.09 1005.38 1005.06 1004.82 1004.22 1004.52 1005.15 1005.38 1005.08 1004.82
1005.58 1005.86 1006.30 1006.07 1005.68 1004.38 1004.25 1003.99 1003.89 1005.12 1006.58 1007.34 1008.08 1008.56 1008.56 1008.64 1008.81 1008.75 1008.70 1008.87 1009.14 1009.25 1009.40 1009.37 1009.46 1009.62 1009.48 1009.43 1009.12 1008.94 1008.66 1007.56 1006.72 1006.12 1005.54 1005.18 1004.98 1004.82 1004.36 1004.29 1004.56 1004.82 1004.47 1003.64 1003.58 1004.14 1004.78 1005.14 1004.64
1006.25 1006.97 1006.73 1006.33 1005.88 1005.39 1004.45 1004.18 1003.52 1004.96 1005.56 1006.90 1008.73 1008.27 1008.34 1008.53 1008.45 1008.32 1008.40 1008.69 1008.74 1008.82 1008.82 1008.92 1009.05 1009.15 1009.22 1009.42 1009.54 1009.29 1008.96 1008.16 1007.15 1006.44 1005.76 1005.39 1005.04 1004.78 1004.51 1004.06 1003.59 1003.60 1003.93 1003.60 1003.37 1003.03 1003.66 1004.18 1004.41
1007.42 1007.00 1006.29 1006.02 1005.52 1004.76 1004.03 1004.88 1004.58 1006.60 1007.53 1007.57 1007.47 1008.03 1008.25 1008.34 1008.38 1008.16 1008.37 1008.40 1008.36 1008.42 1008.49 1008.75 1008.79 1008.68 1008.68 1008.63 1008.77 1008.78 1008.57 1008.30 1007.83 1007.11 1006.63 1005.85 1004.86 1004.09 1003.42 1003.25 1003.31 1003.03 1002.85 1002.92 1002.81 1002.81 1003.04 1003.44 1003.66
1006.84 1006.30 1006.01 1005.25 1004.50 1003.87 1005.00 1005.29 1005.21 1006.60 1007.18 1007.83 1008.10 1008.09 1008.11 1008.17 1008.07 1008.08 1007.99 1008.07 1008.20 1008.09 1008.34 1008.51 1008.55 1008.52 1008.28 1008.02 1007.79 1007.81 1007.92 1007.82 1007.61 1007.21 1006.47 1005.53 1004.59 1003.61 1002.80 1002.60 1002.41 1002.13 1002.10 1002.20 1002.35 1002.50 1002.48 1002.56 1003.01
1007.06 1007.37 1007.90 1007.83 1006.17 1005.29 1005.21 1004.81 1006.24 1007.18 1007.97 1008.24 1008.12 1008.25 1008.06 1007.93 1008.00 1007.91 1007.74 1008.01 1007.83 1007.82 1007.99 1008.35 1008.33 1008.13 1008.12 1007.89 1007.78 1007.77 1007.60 1007.20 1006.86 1006.56 1006.30 1005.70 1005.11 1003.87 1003.16 1002.89 1002.21 1001.88 1001.36 1001.37 1001.66 1001.71 1001.92 1001.98 1002.30
1007.04 1007.08 1008.44 1008.81 1008.33 1007.55 1005.40 1005.69 1006.41 1007.36 1007.72 1008.11 1008.26 1008.26 1008.12 1008.12 1008.00 1007.68 1007.70 1007.56 1007.52 1007.54 1007.70 1007.94 1008.05 1008.14 1007.99 1007.77 1007.72 1007.65 1007.41 1007.10 1006.66 1006.54 1006.13 1005.52 1005.08 1004.42 1003.46 1002.82 1002.19 1001.66 1001.32 1000.67 1000.84 1001.13 1001.21 1001.44 1001.56
1007.90 1008.32 1008.51 1009.04 1009.61 1008.27 1005.84 1006.06 1006.73 1007.88 1008.66 1008.68 1008.59 1008.25 1007.84 1007.86 1007.77 1007.75 1007.56 1007.28 1007.18 1007.21 1007.47 1007.67 1008.06 1008.03 1007.71 1007.60 1007.47 1007.56 1007.36 1007.12 1006.64 1006.11 1005.59 1005.04 1004.43 1003.81 1003.40 1002.80 1002.14 1001.46 1000.63 1000.42 1000.36 1000.57 1000.60 1000.75 1000.83
1007.36 1007.46 1008.29 1009.36 1009.53 1009.90 1008.95 1007.30 1007.94 1007.82 1008.58 1008.86 1008.60 1007.97 1007.72 1007.78 1007.52 1007.54 1007.29 1007.02 1007.01 1007.14 1007.30 1007.66 1007.82 1007.79 1007.76 1007.97 1007.90 1007.52 1007.15 1006.76 1006.26 1005.64 1004.94 1004.34 1003.77 1003.37 1002.84 1002.15 1001.59 1000.96 1000.49 999.96 999.79 999.77 999.76 1000.02 1000.27
1007.48 1007.40 1008.03 1008.66 1009.46 1010.06 1009.75 1008.78 1008.07 1008.21 1008.67 1008.46 1008.41 1007.65 1007.67 1007.67 1007.62 1007.26 1007.09 1007.14 1007.14 1007.21 1007.44 1007.67 1007.82 1007.99 1008.39 1008.18 1007.81 1007.31 1006.91 1006.37 1005.60 1004.75 1004.04 1003.50 1002.96 1002.46 1002.00 1001.48 1000.78 1000.26 999.86 999.44 998.94 999.04 999.22 999.48 999.73
Wind_Speed
14 14 10 7 9 9 16 4 6 4 5 4 6 11 17 19 21 7 6 8 11 15 15 14 10 10 10 10 11 11 11 10 10 10 9 10 10 10 10 10 9 9 8 7 7 7 6 5 4
16 8 8 10 10 13 10 12 6 8 8 5 3 3 4 13 12 14 13 8 10 13 12 13 10 10 10 10 10 11 12 10 11 10 9 9 9 9 10 9 10 9 8 8 7 6 6 5 4
13 10 11 8 13 14 9 7 6 1 1 2 3 6 10 6 12 9 9 9 12 11 12 15 11 9 10 10 10 10 12 11 11 10 11 10 9 9 8 8 8 9 9 9 7 7 6 6 5
8 8 10 11 16 3 9 8 4 4 4 2 6 12 10 4 5 12 9 9 10 12 13 14 11 9 10 11 10 10 10 12 12 12 11 10 10 10 10 10 9 9 10 9 9 7 6 6 5
10 9 13 12 14 7 1 4 5 1 4 2 3 9 12 8 8 10 8 9 9 11 15 14 10 9 10 10 11 10 10 10 11 12 11 11 11 10 10 10 10 10 9 9 8 8 7 6 6
9 8 13 13 7 5 4 1 5 2 4 5 5 9 9 8 7 8 9 8 10 10 12 13 11 8 8 8 8 7 8 9 10 10 10 11 10 10 10 10 10 10 10 10 9 8 8 7 6
14 10 15 16 8 7 3 2 3 3 3 5 6 5 8 9 6 5 7 7 8 9 11 10 10 9 7 8 9 9 8 7 7 7 8 9 10 10 10 9 9 10 10 10 10 10 9 8 8
9 10 19 11 7 9 7 5 1 6 7 2 6 5 9 8 4 7 5 5 11 9 11 11 9 13 10 11 10 10 10 10 9 8 9 9 10 11 11 10 11 11 11 11 11 11 11 9 9
11 11 12 11 8 7 7 11 5 2 7 1 5 11 9 4 7 4 1 6 2 5 3 7 7 13 11 12 16 13 10 10 9 10 11 9 11 14 15 14 11 15 13 12 11 11 11 11 11
11 10 6 11 4 2 6 7 4 6 8 6 8 9 3 5 2 6 4 7 6 3 4 10 6 10 7 5 14 10 11 10 11 12 12 11 12 12 12 15 19 17 15 13 13 13 12 11 11
6 10 9 2 4 7 2 5 3 7 7 11 7 10 9 4 3 6 7 11 11 12 7 13 10 5 9 12 5 6 5 8 9 12 11 11 10 10 10 8 9 10 14 10 14 12 11 14 12
9 3 3 7 4 6 7 6 1 5 11 7 5 5 5 5 8 10 11 11 12 10 10 10 13 9 10 9 10 6 6 3 9 11 13 8 7 9 9 7 11 10 9 13 12 10 14 15 15
12 5 4 3 4 6 6 6 5 6 3 5 6 6 8 8 8 8 9 9 10 10 11 11 11 8 8 10 9 9 8 5 13 6 9 9 10 9 10 9 10 10 10 10 12 12 10 13 13
3 3 7 4 8 4 10 4 6 8 3 5 6 7 9 9 10 9 10 10 11 10 11 12 11 8 10 8 11 10 9 9 9 10 10 11 10 8 10 10 10 11 11 11 10 10 10 10 11
7 9 9 8 8 6 8 7 9 5 3 2 5 5 7 8 9 9 10 9 10 10 11 11 11 10 9 9 9 9 10 10 10 10 10 11 10 11 10 9 9 9 10 12 11 11 9 10 9
11 13 13 13 5 8 9 7 12 5 4 2 2 5 2 6 8 9 9 10 10 11 11 11 11 13 11 11 10 9 10 11 11 10 10 12 13 10 7 9 11 10 9 9 11 10 10 11 11
9 12 5 10 2 6 7 9 14 3 3 2 4 1 4 4 7 8 10 11 11 11 11 12 12 12 13 13 11 11 11 10 11 12 10 12 13 14 12 10 10 9 7 8 10 11 10 8 8
8 5 7 7 11 8 11 11 14 6 5 5 2 2 1 5 7 9 10 11 11 11 11 12 11 12 13 11 10 9 9 10 11 11 12 12 13 14 10 12 12 11 11 8 9 11 11 12 9
9 6 8 2 3 6 13 10 10 12 6 7 4 1 4 5 6 8 9 11 12 12 12 12 13 12 11 10 10 9 9 10 12 11 12 13 13 16 11 12 11 10 12 12 10 11 12 12 11
6 8 9 1 4 6 14 12 11 6 6 1 1 2 5 8 8 9 9 10 11 12 13 13 12 12 11 10 10 10 10 11 12 13 14 14 15 13 13 13 12 10 13 13 11 10 11 11 12
8 9 8 9 12 15 17 16 16 8 6 4 6 3 4 6 10 11 12 10 11 13 12 13 12 13 12 13 10 9 10 10 11 12 12 13 15 15 13 13 13 13 13 12 13 12 15 13 10
12 5 7 10 12 11 5 11 12 16 12 11 6 4 5 7 12 12 12 13 12 12 13 12 12 12 12 13 12 14 13 14 12 12 12 12 15 15 14 14 14 15 14 14 12 12 12 13 13
9 6 11 12 12 13 16 8 11 11 13 11 6 5 7 12 13 15 14 14 14 13 12 13 12 12 12 6 8 7 12 13 13 14 15 14 13 14 17 16 14 15 14 16 15 12 13 12 13
9 12 14 12 13 11 8 3 10 4 5 14 8 8 9 13 15 15 14 14 14 14 14 14 14 12 12 9 9 11 11 14 13 14 12 14 13 13 13 15 14 15 15 16 15 15 14 13 12
12 10 6 7 9 3 6 4 6 5 5 6 5 8 12 14 14 15 15 14 15 15 15 15 15 16 15 16 14 10 10 11 14 14 12 15 13 13 12 11 12 12 15 15 14 15 15 14 13
3 7 4 4 8 14 8 8 8 5 3 1 7 11 14 14 16 16 14 15 14 15 14 16 17 17 17 17 17 16 14 10 11 14 12 11 13 15 16 15 14 15 15 14 15 13 13 14 12
5 3 8 3 10 8 11 9 11 6 2 6 14 13 13 16 16 16 17 14 14 15 16 16 17 19 18 18 16 17 15 15 13 14 13 11 13 13 18 17 17 17 18 16 15 12 14 14 13
8 6 5 5 4 7 11 8 9 5 2 6 14 16 14 16 17 17 16 16 13 15 15 17 18 20 19 20 17 14 16 17 17 14 15 15 17 16 17 19 18 19 16 17 15 13 14 14 12
9 12 4 3 5 3 5 2 2 4 9 11 13 14 16 18 17 16 16 16 16 16 18 19 20 20 20 18 16 16 16 17 16 15 16 16 16 16 18 18 20 19 18 17 15 15 16 16 14
8 8 4 3 6 7 6 9 7 4 3 11 14 15 17 17 19 17 18 18 18 18 19 20 19 20 17 16 15 17 16 17 18 17 17 16 16 15 17 18 20 20 19 18 17 17 16 17 16
Wind_Direction
271 235 239 248 242 232 248 127 3 239 166 39 343 312 61 11 31 57 39 51 93 110 125 147 133 142 145 142 143 149 150 154 161 165 175 170 165 167 158 158 157 159 156 154 155 158 161 163 153
286 248 236 272 254 236 224 87 213 25 353 310 221 227 123 57 30 79 79 68 102 113 131 141 134 139 146 141 139 146 149 156 165 169 172 175 172 169 168 165 165 167 168 170 169 168 173 176 170
258 250 266 234 237 270 51 105 29 352 117 264 106 53 18 24 16 72 65 88 99 124 141 115 133 136 146 147 146 149 151 157 171 175 173 174 176 175 173 172 173 176 177 177 178 185 185 192 183
225 206 246 255 250 121 2 67 331 197 175 208 358 95 90 76 68 54 78 98 137 122 117 131 137 145 149 152 154 152 158 162 169 174 180 180 183 180 177 177 181 187 187 186 183 190 194 202 203
236 259 256 230 255 45 308 15 298 275 48 240 274 89 90 82 90 105 107 117 122 119 111 141 144 157 161 158 161 163 166 169 175 178 182 186 188 187 187 186 185 193 196 198 196 193 201 206 214
236 260 250 238 197 132 209 228 265 292 78 65 157 98 81 108 88 98 99 103 104 117 125 131 144 160 166 170 171 173 174 178 182 186 186 188 191 196 196 194 192 199 201 196 200 204 197 210 217
256 240 259 276 130 172 138 302 297 338 130 67 16 156 105 74 88 83 118 123 118 126 131 143 165 167 180 186 185 185 188 190 198 198 196 196 196 200 203 205 205 204 205 201 197 202 211 208 223
286 284 263 257 174 202 116 248 64 277 75 116 294 164 135 79 333 166 173 150 151 159 155 161 182 174 192 184 195 203 203 199 200 205 206 204 205 210 210 206 209 212 213 209 207 204 206 216 226
248 259 252 230 269 136 130 241 114 95 261 319 33 38 38 24 324 300 334 206 156 45 178 253 182 181 187 200 176 182 202 219 218 218 216 206 232 216 220 218 220 199 207 212 216 219 215 217 226
246 252 284 35 14 16 120 278 73 252 198 179 180 137 77 313 6 310 307 313 339 356 347 2 37 0 308 234 128 187 200 210 216 221 222 217 232 237 232 212 198 193 202 210 216 218 218 225 242
199 292 63 95 24 323 303 229 190 286 273 37 350 330 27 309 27 325 345 21 353 5 355 357 6 326 300 299 241 155 210 203 206 216 226 225 231 227 235 243 190 208 202 223 208 212 228 230 237
250 325 233 144 133 248 252 303 261 308 32 19 49 36 14 20 25 18 9 8 0 8 21 336 1 347 329 310 301 258 178 252 230 187 203 231 235 245 242 236 239 217 215 211 239 215 213 222 239
254 165 206 164 215 250 276 251 285 94 10 72 78 65 67 42 34 45 24 20 3 4 7 352 339 345 328 309 289 287 288 220 232 182 202 214 228 240 245 234 254 251 240 224 225 229 242 215 233
49 241 201 209 212 149 238 176 191 119 189 106 78 64 56 60 36 26 26 15 8 2 2 353 337 339 339 317 311 300 280 274 264 271 268 204 221 238 250 237 240 254 255 255 246 232 238 231 247
228 230 208 204 205 142 274 180 208 115 177 127 89 75 73 54 45 37 20 18 11 355 0 348 329 344 326 318 309 295 284 271 265 263 254 240 241 218 259 265 242 242 255 261 257 264 243 249 248
225 229 208 144 183 126 247 232 113 183 185 156 15 117 35 75 43 23 18 11 7 354 350 341 341 329 339 320 307 296 286 291 274 260 261 250 235 224 244 251 259 247 235 249 260 248 245 247 235
181 253 206 143 179 343 233 304 127 195 211 254 246 340 69 18 34 35 10 6 0 350 347 338 339 334 330 317 305 290 278 267 265 275 265 270 246 240 210 224 264 265 259 236 239 241 251 260 257
1 290 177 280 140 216 263 258 162 159 271 219 273 325 45 1 13 17 6 359 354 345 341 334 331 330 328 309 298 285 276 269 263 255 259 238 270 248 238 238 220 226 254 224 238 234 234 241 239
317 292 285 330 36 275 275 296 273 160 221 220 214 145 345 343 347 8 358 345 347 342 335 332 326 330 328 313 317 300 301 304 298 288 261 256 229 262 262 237 242 221 249 256 223 227 229 250 247
256 268 257 312 210 268 281 279 277 198 190 324 233 306 339 323 333 337 334 335 340 334 331 328 323 322 319 309 326 302 296 289 290 293 299 304 300 238 249 267 257 231 244 227 234 232 240 229 232
228 298 335 316 320 274 250 262 217 133 159 160 206 234 283 323 323 327 327 329 334 327 330 322 321 315 311 309 302 297 291 276 269 259 250 247 252 262 257 229 250 255 239 249 214 216 228 241 232
294 73 292 285 280 289 333 292 224 157 182 181 208 251 310 337 319 321 331 335 332 323 324 324 319 315 302 319 313 319 306 291 286 288 285 294 295 290 271 246 230 237 254 246 241 214 225 234 244
321 343 292 287 285 293 273 231 239 167 201 123 338 265 333 334 335 328 342 333 325 332 327 333 323 314 306 301 294 297 303 299 311 308 308 297 287 273 274 272 260 233 233 249 254 249 207 218 239
311 273 260 242 247 255 222 303 92 82 170 175 185 2 329 338 328 338 336 326 335 326 339 333 326 316 311 292 288 279 281 286 289 289 288 294 291 289 265 243 247 267 241 237 242 238 234 224 230
239 271 320 244 205 306 121 268 70 79 87 30 359 311 341 332 331 334 332 336 329 329 333 335 331 317 313 309 298 290 282 285 284 282 279 281 281 276 273 270 264 248 243 246 242 240 238 222 223
334 319 91 261 339 322 294 246 96 74 62 285 275 345 330 338 336 326 335 333 320 330 332 334 324 321 321 313 315 311 297 293 286 280 286 283 282 286 296 303 287 276 262 246 243 239 236 230 221
114 221 31 272 282 277 255 140 133 164 169 31 350 334 334 339 326 333 335 322 330 331 337 326 332 322 315 310 312 304 301 298 293 288 274 274 271 271 265 267 270 267 277 263 242 239 236 233 221
300 54 205 148 289 299 314 350 74 75 179 354 342 315 342 333 333 339 329 325 330 338 331 339 332 318 316 315 315 306 302 295 292 288 277 273 279 272 270 276 277 281 268 261 257 242 235 230 220
177 204 199 305 342 262 304 42 251 37 11 343 299 325 342 336 330 329 329 334 336 337 338 336 324 321 322 324 310 308 304 297 289 284 277 269 265 262 266 263 261 263 270 263 252 243 235 227 221
296 301 268 269 251 193 246 280 358 14 290 308 315 337 336 335 334 334 336 336 337 339 339 330 330 328 325 311 310 306 302 295 288 281 278 278 274 265 264 261 262 259 257 262 248 239 234 228 218